STARLINK-2440 (48105 NORAD) Tracking and Keplerian Element Data

This shows tracking and keplerian element data for the satellite.

Feedback or suggestion? Click here.




ElementValue
Catalog48105
NameSTARLINK-2440
Epoch Orbit198
Epoch Day173.91668981
Epoch Year2021
RAAN321.6067
Inclination53.0463
Eccentricity0.0003429
Argument of Perigee14.8606
Mean Anonmoly33.232
Mean Motion15.72995896
Decay Rate0.0036772
L11 48105U 21027P 21173.91668981 .00367720 00000-0 25328-2 0 9999
L22 48105 53.0463 321.6067 0003429 14.8606 33.2320 15.72995896 1981

Live tracking and technical data element details for STARLINK-2440 (NORAD 48105). STARLINK-2440 can be tracked NOW for your location showing map with azimuth and elevation plus other details from your city location.

Track the satellite on the map from your city or location and see movement details for azimuth, elevation, latitude, longitude, range, height, and movement on the map or in text.







IsCatalogInMostPopularTable: catalog: 48105, numindb: 34
Update: records affected: 1



GetName: 48105 STARLINK-2440

Hit Count: updated at: Thu, 24 Jun 2021 04:19:58 GMT